Location: Franzen
(48.6167°N, 15.3833°E)
Time: 09:49:05
(UTC+00:00)

Cosmos 1707 Rocket - Pass Details

Date: 22 April 2021
Orbit: 606 x 631 km, 82.5° (Epoch: 16 May)

Event Time Altitude Azimuth Distance (km) Brightness Sun altitude
Exits shadow 23:42:09 45° 44° (NE) 840 4.5 -28.0°
Drops below altitude 10° 23:45:23 10° 17° (NNE) 1,971 7.1 -27.9°
Sets 23:47:38 0° 13° (NNE) 2,882 8.3 -27.8°
